Time,TemperatureF,DewpointF,PressureIn,WindDirection,WindDirectionDegrees,WindSpeedMPH,WindSpeedGustMPH,Humidity,HourlyPrecipIn,Conditions,Clouds,dailyrainin,SolarRadiationWatts/m^2,SoftwareType,DateUTC
2013-11-24 00:03:00,16.0,12.0,-100.00,WNW,288,5.0,9.0,85,0.00,,,0.00,0.000000,,2013-11-24 05:03:00,
2013-11-24 00:43:00,16.0,13.0,-100.00,NW,304,5.0,10.0,87,0.00,,,0.00,0.000000,,2013-11-24 05:43:00,
2013-11-24 00:53:00,16.0,13.0,-100.00,NW,304,5.0,10.0,87,0.00,,,0.00,0.000000,,2013-11-24 05:53:00,
2013-11-24 01:02:00,16.0,13.0,-100.00,NW,304,5.0,10.0,87,0.00,,,0.00,0.000000,,2013-11-24 06:02:00,
2013-11-24 01:42:00,14.0,8.0,-100.00,WNW,299,6.0,11.0,75,0.00,,,0.00,0.000000,,2013-11-24 06:42:00,
2013-11-24 01:52:00,14.0,8.0,-100.00,WNW,299,6.0,11.0,75,0.00,,,0.00,0.000000,,2013-11-24 06:52:00,
2013-11-24 02:02:00,14.0,8.0,-100.00,WNW,299,6.0,11.0,75,0.00,,,0.00,0.000000,,2013-11-24 07:02:00,
2013-11-24 02:42:00,13.0,6.0,-100.00,WNW,298,5.0,10.0,72,0.00,,,0.00,0.000000,,2013-11-24 07:42:00,
2013-11-24 02:52:00,13.0,6.0,-100.00,WNW,298,5.0,10.0,72,0.00,,,0.00,0.000000,,2013-11-24 07:52:00,
2013-11-24 03:02:00,13.0,6.0,-100.00,WNW,298,5.0,10.0,72,0.00,,,0.00,0.000000,,2013-11-24 08:02:00,
2013-11-24 03:42:00,12.0,6.0,-100.00,WNW,298,4.0,8.0,77,0.00,,,0.00,0.000000,,2013-11-24 08:42:00,
2013-11-24 03:53:00,12.0,6.0,-100.00,WNW,298,4.0,8.0,77,0.00,,,0.00,0.000000,,2013-11-24 08:53:00,
2013-11-24 04:02:00,12.0,6.0,-100.00,WNW,298,4.0,8.0,77,0.00,,,0.00,0.000000,,2013-11-24 09:02:00,
2013-11-24 04:43:00,9.0,4.0,-100.00,WNW,290,3.0,4.0,80,0.00,,,0.00,0.000000,,2013-11-24 09:43:00,
2013-11-24 04:54:00,9.0,4.0,-100.00,WNW,290,3.0,4.0,80,0.00,,,0.00,0.000000,,2013-11-24 09:54:00,
2013-11-24 05:03:00,9.0,4.0,-100.00,WNW,290,3.0,4.0,80,0.00,,,0.00,0.000000,,2013-11-24 10:03:00,
2013-11-24 05:43:00,9.0,4.0,-100.00,WNW,293,3.0,4.0,79,0.00,,,0.00,0.000000,,2013-11-24 10:43:00,
2013-11-24 05:53:00,9.0,4.0,-100.00,WNW,293,3.0,4.0,79,0.00,,,0.00,0.000000,,2013-11-24 10:53:00,
2013-11-24 06:03:00,9.0,4.0,-100.00,WNW,293,3.0,4.0,79,0.00,,,0.00,0.000000,,2013-11-24 11:03:00,
2013-11-24 06:43:00,7.0,3.0,-100.00,West,275,1.0,3.0,83,0.00,,,0.00,0.000000,,2013-11-24 11:43:00,
2013-11-24 06:53:00,7.0,3.0,-100.00,West,275,1.0,3.0,83,0.00,,,0.00,0.000000,,2013-11-24 11:53:00,
2013-11-24 07:02:00,7.0,3.0,-100.00,West,275,1.0,3.0,83,0.00,,,0.00,0.000000,,2013-11-24 12:02:00,
2013-11-24 07:42:00,7.0,3.0,-100.00,West,280,2.0,2.0,83,0.00,,,0.00,0.000000,,2013-11-24 12:42:00,
2013-11-24 07:53:00,7.0,3.0,-100.00,West,280,2.0,2.0,83,0.00,,,0.00,0.000000,,2013-11-24 12:53:00,
2013-11-24 08:02:00,7.0,3.0,-100.00,West,280,2.0,2.0,83,0.00,,,0.00,0.000000,,2013-11-24 13:02:00,
2013-11-24 08:42:00,9.0,4.0,-100.00,WNW,282,3.0,4.0,81,0.00,,,0.00,17.000000,,2013-11-24 13:42:00,
2013-11-24 08:52:00,9.0,4.0,-100.00,WNW,282,3.0,4.0,81,0.00,,,0.00,17.000000,,2013-11-24 13:52:00,
2013-11-24 09:01:00,9.0,4.0,-100.00,WNW,282,3.0,4.0,81,0.00,,,0.00,17.000000,,2013-11-24 14:01:00,
2013-11-24 09:42:00,17.0,7.0,-100.00,NW,308,7.0,11.0,63,0.00,,,0.00,124.000000,,2013-11-24 14:42:00,
2013-11-24 09:53:00,17.0,7.0,-100.00,NW,308,7.0,11.0,63,0.00,,,0.00,124.000000,,2013-11-24 14:53:00,
2013-11-24 10:02:00,17.0,7.0,-100.00,NW,308,7.0,11.0,63,0.00,,,0.00,124.000000,,2013-11-24 15:02:00,
2013-11-24 10:44:00,20.0,5.0,-100.00,NW,325,7.0,14.0,51,0.00,,,0.00,229.000000,,2013-11-24 15:44:00,
2013-11-24 10:53:00,20.0,5.0,-100.00,NW,325,7.0,14.0,51,0.00,,,0.00,229.000000,,2013-11-24 15:53:00,
2013-11-24 11:04:00,20.0,5.0,-100.00,NW,325,7.0,14.0,51,0.00,,,0.00,229.000000,,2013-11-24 16:04:00,
2013-11-24 11:43:00,22.0,3.0,-100.00,WNW,297,9.0,16.0,43,0.00,,,0.00,376.000000,,2013-11-24 16:43:00,
2013-11-24 11:53:00,22.0,3.0,-100.00,WNW,297,9.0,16.0,43,0.00,,,0.00,376.000000,,2013-11-24 16:53:00,
2013-11-24 12:03:00,22.0,3.0,-100.00,WNW,297,9.0,16.0,43,0.00,,,0.00,376.000000,,2013-11-24 17:03:00,
2013-11-24 12:43:00,20.0,3.0,-100.00,NW,320,5.0,8.0,46,0.01,,,0.01,260.000000,,2013-11-24 17:43:00,
2013-11-24 12:52:00,20.0,3.0,-100.00,NW,320,5.0,8.0,46,0.01,,,0.01,260.000000,,2013-11-24 17:52:00,
2013-11-24 13:02:00,20.0,3.0,-100.00,NW,320,5.0,8.0,46,0.01,,,0.01,260.000000,,2013-11-24 18:02:00,
2013-11-24 13:42:00,23.0,4.0,-100.00,NW,314,6.0,15.0,43,0.00,,,0.01,309.000000,,2013-11-24 18:42:00,
2013-11-24 13:53:00,23.0,4.0,-100.00,NW,314,6.0,15.0,43,0.00,,,0.01,309.000000,,2013-11-24 18:53:00,
2013-11-24 14:02:00,23.0,4.0,-100.00,NW,314,6.0,15.0,43,0.00,,,0.01,309.000000,,2013-11-24 19:02:00,
2013-11-24 14:42:00,20.0,6.0,-100.00,WNW,301,7.0,12.0,54,0.00,,,0.01,186.000000,,2013-11-24 19:42:00,
2013-11-24 14:52:00,20.0,6.0,-100.00,WNW,301,7.0,12.0,54,0.00,,,0.01,186.000000,,2013-11-24 19:52:00,
2013-11-24 15:02:00,20.0,6.0,-100.00,WNW,301,7.0,12.0,54,0.00,,,0.01,186.000000,,2013-11-24 20:02:00,
2013-11-24 15:42:00,20.0,8.0,-100.00,WNW,300,8.0,18.0,59,0.00,,,0.01,256.000000,,2013-11-24 20:42:00,
2013-11-24 15:52:00,20.0,8.0,-100.00,WNW,300,8.0,18.0,59,0.00,,,0.01,256.000000,,2013-11-24 20:52:00,
2013-11-24 16:02:00,20.0,8.0,-100.00,WNW,300,8.0,18.0,59,0.00,,,0.01,256.000000,,2013-11-24 21:02:00,
2013-11-24 16:43:00,18.0,12.0,-100.00,West,280,6.0,11.0,78,0.00,,,0.01,55.000000,,2013-11-24 21:43:00,
2013-11-24 16:54:00,18.0,12.0,-100.00,West,280,6.0,11.0,78,0.00,,,0.01,55.000000,,2013-11-24 21:54:00,
2013-11-24 17:03:00,18.0,12.0,-100.00,West,280,6.0,11.0,78,0.00,,,0.01,55.000000,,2013-11-24 22:03:00,
2013-11-24 17:43:00,17.0,14.0,-100.00,WNW,283,4.0,8.0,86,0.00,,,0.01,12.000000,,2013-11-24 22:43:00,
2013-11-24 17:53:00,17.0,14.0,-100.00,WNW,283,4.0,8.0,86,0.00,,,0.01,12.000000,,2013-11-24 22:53:00,
2013-11-24 18:02:00,17.0,14.0,-100.00,WNW,283,4.0,8.0,86,0.00,,,0.01,12.000000,,2013-11-24 23:02:00,
2013-11-24 18:42:00,16.0,9.0,-100.00,WNW,282,6.0,9.0,73,0.00,,,0.01,0.000000,,2013-11-24 23:42:00,
2013-11-24 18:52:00,16.0,9.0,-100.00,WNW,282,6.0,9.0,73,0.00,,,0.01,0.000000,,2013-11-24 23:52:00,
2013-11-24 19:02:00,16.0,9.0,-100.00,WNW,282,6.0,9.0,73,0.00,,,0.01,0.000000,,2013-11-25 00:02:00,
2013-11-24 19:43:00,16.0,9.0,-100.00,West,266,4.0,9.0,74,0.00,,,0.01,0.000000,,2013-11-25 00:43:00,
2013-11-24 19:52:00,16.0,9.0,-100.00,West,266,4.0,9.0,74,0.00,,,0.01,0.000000,,2013-11-25 00:52:00,
2013-11-24 20:02:00,16.0,9.0,-100.00,West,266,4.0,9.0,74,0.00,,,0.01,0.000000,,2013-11-25 01:02:00,
2013-11-24 20:43:00,15.0,11.0,-100.00,West,271,4.0,10.0,82,0.00,,,0.01,0.000000,,2013-11-25 01:43:00,
2013-11-24 20:53:00,15.0,11.0,-100.00,West,271,4.0,10.0,82,0.00,,,0.01,0.000000,,2013-11-25 01:53:00,
2013-11-24 21:01:00,15.0,11.0,-100.00,West,271,4.0,10.0,82,0.00,,,0.01,0.000000,,2013-11-25 02:01:00,
2013-11-24 21:43:00,16.0,12.0,-100.00,West,271,4.0,7.0,85,0.00,,,0.01,0.000000,,2013-11-25 02:43:00,
2013-11-24 21:52:00,16.0,12.0,-100.00,West,271,4.0,7.0,85,0.00,,,0.01,0.000000,,2013-11-25 02:52:00,
2013-11-24 22:02:00,16.0,12.0,-100.00,West,271,4.0,7.0,85,0.00,,,0.01,0.000000,,2013-11-25 03:02:00,
2013-11-24 22:43:00,16.0,12.0,-100.00,West,275,3.0,5.0,85,0.00,,,0.01,0.000000,,2013-11-25 03:43:00,
2013-11-24 22:53:00,16.0,12.0,-100.00,West,275,3.0,5.0,85,0.00,,,0.01,0.000000,,2013-11-25 03:53:00,
2013-11-24 23:03:00,16.0,12.0,-100.00,West,275,3.0,5.0,85,0.00,,,0.01,0.000000,,2013-11-25 04:03:00,
2013-11-24 23:43:00,13.0,10.0,-100.00,WSW,244,1.0,2.0,86,0.00,,,0.01,0.000000,,2013-11-25 04:43:00,
2013-11-24 23:53:00,13.0,10.0,-100.00,WSW,244,1.0,2.0,86,0.00,,,0.01,0.000000,,2013-11-25 04:53:00,